Home > Weather > Sunrise Manor > Past weeks

Flag for USA Past Weather in Sunrise Manor, Nevada, USA — Yesterday and Last 2 Weeks

Now
87 °F

Clear.


Feels Like: 84 °F
Forecast: 74 / 101 °F
Wind: 2 mph from Southwest

Location: Nellis Air Force Base

Current Time: Aug 25, 2016 at 1:11:01 AM

Latest Report: Aug 24, 2016 at 11:58 PM


Visibility: 10 mi

Pressure: 29.77 "Hg (27.97 "Hg at 555m altitude)

Humidity: 24%

Dew Point: 47 °F

Location of Sunrise ManorLocation

Past Weather in Sunrise Manor — Graph

°F

Sunrise Manor Temperature Yesterday

Maximum temperature yesterday: 100 °F (at 4:58 PM)
Minimum temperature yesterday: 74 °F (at 6:58 AM)
Average temperature yesterday: 88 °F

High & Low Weather Summary for the Past Weeks

 TemperatureHumidityPressure
High109 °F (Aug 14, 3:58 PM)81% (Aug 23, 3:58 AM)30.07 "Hg (Aug 23, 3:58 AM)
Low68 °F (Aug 22, 8:03 PM)4% (Aug 16, 2:58 PM)29.62 "Hg (Aug 20, 6:58 PM)
Average91 °F23%29.79 "Hg
* Reported Aug 9 11:58 PM — Aug 24 11:58 PM, Sunrise Manor, Weather by CustomWeather, © 2016

Note: Actual official high and low records may vary slightly from our data, if they occured in-between our weather recording intervals... More about our weather records

Advertising

Sunrise Manor Weather History for the Previous 24 Hours

Scroll right to see more
 ConditionsComfort  
Time TempWeatherWind HumidityBarometerVisibility
11:58 PM
Wed, Aug 24
87 °FClear.2 mph24%29.77 "Hg10 mi
10:58 PM89 °FClear.2 mph21%29.77 "Hg10 mi
9:58 PM91 °FClear.5 mph19%29.76 "Hg10 mi
8:58 PM93 °FClear.6 mph21%29.76 "Hg10 mi
7:58 PM95 °FSunny.5 mph22%29.75 "Hg10 mi
6:58 PM97 °FSunny.6 mph21%29.75 "Hg10 mi
5:58 PM99 °FSunny.2 mph17%29.74 "Hg10 mi
4:58 PM100 °FSunny.3 mph17%29.76 "Hg10 mi
3:58 PM99 °FSunny.3 mph18%29.78 "Hg10 mi
2:58 PM97 °FSunny.6 mph20%29.81 "Hg10 mi
1:58 PM95 °FSunny.No wind23%29.85 "Hg10 mi
12:58 PM92 °FSunny.3 mph26%29.88 "Hg10 mi
11:58 AM90 °FSunny.3 mph30%29.91 "Hg10 mi
10:58 AM88 °FSunny.1 mph34%29.94 "Hg10 mi
9:58 AM86 °FSunny.3 mph37%29.95 "Hg10 mi
8:58 AM80 °FSunny.5 mph50%29.95 "Hg10 mi
7:58 AM75 °FSunny.3 mph56%29.96 "Hg10 mi
6:58 AM74 °FClear.No wind55%29.94 "Hg10 mi
5:58 AM75 °FClear.3 mph54%29.93 "Hg10 mi
4:58 AM78 °FClear.12 mph54%29.90 "Hg10 mi
3:58 AM78 °FClear.12 mph51%29.90 "Hg10 mi
2:58 AM80 °FClear.7 mph45%29.89 "Hg10 mi
1:58 AM81 °FClear.6 mph39%29.91 "Hg10 mi
Weather by CustomWeather, © 2016

See weather overviewHow to use our weather pages